OBJECT H, 63989

Orbit data source: Space-Track

You're viewing an Uncataloged Satellite

Recently launched and/or uncataloged satellites may have evolving metadata. Metadata may include but not limited to: Owner, Maufacturer, Bus, Motor, and Mission.

OBJECT H, 63989 is a Chinese satellite in SSO that was launched on Wed, 14 May 2025 UTC via a CHANG ZHENG 2D launch vehicle from the Jiuquan Satellite Launch Center, China (JSC). Unknown objects in Earth's orbit typically refer to objects detected orbiting the Earth but have not yet been identified or cataloged. These objects could be anything from previously untracked satellites, spent rocket stages, debris from satellite collisions, or even natural meteoroids temporarily captured by Earth's gravity.

Loading next visibility...
Identifier
63989, 2025-100H
Orbit
SSO
Country
Flag of CNCN / PRC
Related business
None
Manufacturer
Unknown
Mission
Operational Commercial Technology
Bus & Motor
Unknown
Mass
Unknown
Launch date (UTC)
2025-05-14 (1 year ago)
Launch vehicle
CHANG ZHENG 2D
Launch site
Jiuquan Satellite Launch Center, China (JSC)
Object type
Unknown
Shape & HBR
Box + 2 Pan, 0.9 m
Radar Cross Section
0.135 m², Large (>1 m²)

Expand to show TLE details & history
Last TLE update: 11 hours ago

TLE from 11 hours ago
0 OBJECT H
1 63989U 25100H   26198.66925421  .00016387  00000-0  45033-3 0  9997
2 63989  97.3669 275.2195 0009449 162.1397 198.0181 15.37248424 65541
Epoch: 2026-07-17T16:03Z
TLE epoch observation values (Epoch: 2026-07-17T16:03:43.563Z)
Latitude
-0.00009°
Longitude
98.79496°
Altitude
463.506 km
Speed
7.631 km/s
True Right ascension
18h 20m 52s
True Declination
0° 00' 00"
Sunlit
Object was in full shadow at epoch
Visualization orbit readout
Latitude
Unknown
Longitude
Unknown
Altitude
Unknown
Speed
Unknown
Apparent Right ascension
Unknown
Apparent Declination
Unknown
Sunlit
N/A
Visualization observer readout
Local Sidereal Time
15:41:23
Azimuth
Unknown
Elevation
Unknown
Doppler factor
Unknown
Orbital elements
Apogee altitude
457.644 km
Perigee altitude
444.738 km
Semi-major axis
6,829.328 km
Eccentricity
0.00094
Inclination
97.3669°
RAAN
275.2195°
Arg. of periapsis
162.1397°
True anomaly
197.98465°
Mean anomaly
198.0181°
Eccentric anomaly
198.00137°
Mean motion
3.84571 °/min
Orbital period
93.61 mins
BSTAR
0.00045033
Loading maneuver chart data...
Computing Atmospheric mass density...
Loading historical data...
Loading historical data...
Loading historical data...
Loading historical data...
Loading historical data...
Loading historical data...
Loading historical data...

Documentation

Showing up to 5 results
|